• Join FlightAware (Why Join?)
  • Login
  • US Flag 
02:26PM EST


 

Airport Tracker/Info


-or-


 

Live Flight TrackerFlight Track Log ✈ N27XP ✈ 04-Oct-2013 ✈ KSOP - KBED

Flight Track Log - Related Links

Times and Time Zones

All times are in EDT time to prevent confusion due to time zone crossing. See the N27XP flight status page for this flight to view local times or setup timezone preferences in your user account.

Time Position Orientation Groundspeed Altitude Reporting Facility
EDT Latitude Longitude Course Direction KTS MPH feet Rate Location/Type
02:45PM 35.3500 -79.2819 36° Northeast 236 272 6,900  Level Washington Center
02:46PM 35.4017 -79.2358 36° Northeast 236 272 9,300 2,520 Climbing Washington Center
02:47PM 35.4639 -79.1775 37° Northeast 243 280 12,100 2,520 Climbing Washington Center
02:48PM 35.5133 -79.1286 39° Northeast 248 285 14,300 1,800 Climbing Washington Center
02:49PM 35.5733 -79.0728 37° Northeast 253 291 15,700 1,440 Climbing Washington Center
02:50PM 35.6419 -79.0144 35° Northeast 273 314 17,300 1,560 Climbing Washington Center
02:51PM 35.7125 -78.9483 37° Northeast 296 341 18,800 1,620 Climbing Washington Center
02:52PM 35.7875 -78.8822 36° Northeast 317 365 20,500 1,560 Climbing Washington Center
02:53PM 35.8622 -78.8161 36° Northeast 324 373 22,000 1,500 Climbing Washington Center
02:54PM 35.9369 -78.7500 36° Northeast 324 373 23,600 1,560 Climbing Washington Center
02:55PM 36.0139 -78.6811 36° Northeast 329 379 25,200 1,560 Climbing Washington Center
02:56PM 36.0889 -78.6122 37° Northeast 329 379 26,800 1,560 Climbing Washington Center
02:57PM 36.1656 -78.5431 36° Northeast 321 369 28,400 1,320 Climbing Washington Center
02:58PM 36.2381 -78.4764 37° Northeast 321 369 29,500 1,020 Climbing Washington Center
02:59PM 36.3150 -78.4069 36° Northeast 321 369 30,500 960 Climbing Washington Center
03:00PM 36.3917 -78.3375 36° Northeast 321 369 31,500 1,020 Climbing Washington Center
03:01PM 36.4683 -78.2653 37° Northeast 326 375 32,600 960 Climbing Washington Center
03:02PM 36.5472 -78.1956 35° Northeast 331 381 33,400 840 Climbing Washington Center
03:03PM 36.6153 -78.1331 36° Northeast 336 387 34,300 840 Climbing Washington Center
03:04PM 36.6897 -78.0578 39° Northeast 342 394 35,200 720 Climbing Washington Center
03:05PM 36.7706 -77.9825 37° Northeast 348 400 35,800 540 Climbing Washington Center
03:06PM 36.8514 -77.9097 36° Northeast 353 406 36,400 540 Climbing Washington Center
03:07PM 36.9300 -77.8342 38° Northeast 353 406 36,900 300 Climbing Washington Center
03:08PM 37.0169 -77.7536 36° Northeast 358 412 37,000  Climbing Washington Center
03:09PM 37.1039 -77.6753 36° Northeast 368 423 37,000  Level Washington Center
03:10PM 37.1931 -77.5917 37° Northeast 388 447 37,000  Level Washington Center
03:11PM 37.2842 -77.5078 36° Northeast 398 458 37,000  Level Washington Center
03:12PM 37.3772 -77.4186 37° Northeast 403 464 37,000  Level Washington Center
03:13PM 37.4725 -77.3294 37° Northeast 419 482 37,000  Level Washington Center
03:14PM 37.5675 -77.2397 37° Northeast 419 482 37,000  Level Washington Center
03:15PM 37.6647 -77.1447 38° Northeast 419 482 37,000  Level Washington Center
03:16PM 37.7575 -77.0547 37° Northeast 419 482 37,000  Level Washington Center
03:17PM 37.8547 -76.9619 37° Northeast 419 482 37,000  Level Washington Center
03:18PM 37.9517 -76.8664 38° Northeast 424 488 37,000  Level Washington Center
03:19PM 38.0464 -76.7756 37° Northeast 424 488 37,000  Level Washington Center
03:20PM 38.1411 -76.6847 37° Northeast 424 488 37,000  Level Washington Center
03:21PM 38.2358 -76.5908 38° Northeast 424 488 37,000  Level Washington Center
03:22PM 38.3386 -76.4892 38° Northeast 424 488 37,000  Level Washington Center
03:23PM 38.4353 -76.3975 37° Northeast 424 488 37,000  Level Washington Center
03:24PM 38.5275 -76.3056 38° Northeast 419 482 37,000  Level Washington Center
03:25PM 38.6219 -76.2108 38° Northeast 419 482 37,000  Level Washington Center
03:26PM 38.7119 -76.1292 35° Northeast 427 491 37,000  Level Washington Center
03:27PM 38.8061 -76.0311 39° Northeast 432 497 37,000  Level Washington Center
03:28PM 38.9003 -75.9358 38° Northeast 432 497 37,000  Level Washington Center
03:29PM 38.9964 -75.8428 37° Northeast 432 497 37,000  Level Washington Center
03:30PM 39.0903 -75.7467 38° Northeast 432 497 37,000  Level Washington Center
03:31PM 39.1864 -75.6506 38° Northeast 432 497 37,000  Level Washington Center
03:32PM 39.2800 -75.5567 38° Northeast 432 497 37,000  Level Washington Center
03:33PM 39.3758 -75.4572 39° Northeast 437 503 37,000  Level Washington Center
03:34PM 39.4717 -75.3631 37° Northeast 437 503 37,000  Level Washington Center
03:35PM 39.5653 -75.2658 39° Northeast 437 503 37,000  Level Washington Center
03:36PM 39.6586 -75.1711 38° Northeast 437 503 37,000  Level Washington Center
03:37PM 39.7450 -75.0800 39° Northeast 436 502 37,000  Level New York Center
03:38PM 39.8383 -74.9828 39° Northeast 436 502 37,000  Level New York Center
03:39PM 39.9314 -74.8831 39° Northeast 431 496 37,000 -60 Level New York Center
03:40PM 40.0233 -74.7556 47° Northeast 426 490 36,900  Descending New York Center
03:41PM 40.0903 -74.6236 56° Northeast 432 497 37,000  Climbing New York Center
03:42PM 40.1219 -74.4789 74° East 437 503 37,000 -720 Level New York Center
03:43PM 40.1581 -74.3206 73° East 442 509 35,700 -1,800 Descending New York Center
03:44PM 40.2325 -74.2075 49° Northeast 416 479 33,500 -2,280 Descending New York Center
03:45PM 40.3203 -74.1192 37° Northeast 399 459 31,100 -2,460 Descending New York Center
03:46PM 40.4086 -74.0200 41° Northeast 399 459 28,700 -2,220 Descending New York Center
03:48PM 40.5644 -73.8033 47° Northeast 423 487 24,900 -1,800 Descending Boston Center
03:49PM 40.6222 -73.6706 60° Northeast 446 513 23,600 -960 Descending Boston Center
03:50PM 40.6883 -73.5239 59° Northeast 456 525 23,000 -300 Descending Boston Center
03:51PM 40.7542 -73.3825 58° Northeast 456 525 23,000  Level Boston Center
03:52PM 40.8344 -73.2575 50° Northeast 456 525 23,000  Level Boston Center
03:53PM 40.9289 -73.1489 41° Northeast 445 512 23,000 -480 Level Boston Center
03:54PM 41.0233 -73.0344 42° Northeast 445 512 22,100 -1,500 Descending Boston Center
03:55PM 41.1156 -72.9278 41° Northeast 450 518 20,000 -1,920 Descending Boston Center
03:56PM 41.2078 -72.8208 41° Northeast 439 505 18,300 -1,620 Descending Boston Center
03:57PM 41.2914 -72.7247 41° Northeast 406 467 16,900 -1,440 Descending Boston Center
03:58PM 41.3997 -72.6586 25° Northeast 387 445 15,500 -960 Descending Boston Center
03:59PM 41.4936 -72.6147 19° North 387 445 15,000 -600 Descending Boston Center
04:00PM 41.6314 -72.5483 20° North 375 432 14,200 -960 Descending Boston Center
04:01PM 41.6814 -72.5014 35° Northeast 368 423 13,200 -1,500 Descending Boston Center
04:02PM 41.7461 -72.4317 39° Northeast 378 435 12,100 -1,500 Descending Boston Center
04:02PM 41.7731 -72.4039 38° Northeast 368 423 11,700 -1,140 Descending Boston Center
04:03PM 41.8211 -72.3508 39° Northeast 373 429 11,000 -720 Descending Boston Center
04:03PM 41.8439 -72.3231 42° Northeast 374 430 11,000  Level Boston Center
04:04PM 41.9083 -72.2531 39° Northeast 359 413 11,000 -240 Level Boston Center
04:04PM 41.9272 -72.2336 37° Northeast 363 418 10,800 -1,620 Descending Boston Center
04:05PM 41.9792 -72.1692 43° Northeast 350 403 9,500 -1,860 Descending Boston Center
04:05PM 41.9936 -72.1553 36° Northeast 352 405 9,000 -1,800 Descending Boston Center
04:06PM 42.0456 -72.0964 40° Northeast 307 353 7,700 -1,740 Descending Boston Center
04:06PM 42.0664 -72.0736 39° Northeast 321 369 7,300 -720 Descending Boston Center
04:07PM 42.1100 -72.0231 41° Northeast 292 336 7,000 -300 Descending Boston Center
04:07PM 42.1203 -72.0092 45° Northeast 297 342 7,000 -240 Level Boston Center
04:08PM 42.1742 -71.9528 38° Northeast 278 320 6,800 -540 Descending Boston Center
04:08PM 42.1889 -71.9358 40° Northeast 281 323 6,500 -1,260 Descending Boston Center
04:09PM 42.2322 -71.8933 36° Northeast 283 326 5,700 -1,200 Descending Boston Center
04:09PM 42.2508 -71.8650 48° Northeast 286 329 5,300 -600 Descending Boston Center
04:10PM 42.3069 -71.8056 38° Northeast 279 321 5,000 -180 Descending Boston Center
04:11PM 42.3606 -71.7264 47° Northeast 269 310 5,000 -420 Level Boston Center
04:12PM 42.3975 -71.6472 58° Northeast 253 291 4,200 -1,080 Descending Boston Center
04:13PM 42.4325 -71.5681 59° Northeast 242 278 2,900 -1,080 Descending Boston Center
04:14PM 42.4631 -71.4972 60° Northeast 242 278 2,100 -480 Descending Boston Center
04:15PM 42.4792 -71.4183 74° East 209 241 2,000 -540 Descending Boston Center
04:16PM 42.4786 -71.3619 91° East 178 205 1,100 -960 Descending Boston Center
04:17PM 42.4667 -71.3333 119° Southeast 142 163 600 6,780 Descending KA90
04:18PM 42.4692 -71.2439 88° East 151 174 15,000 5,760 Climbing Boston Center
04:19PM 42.4622 -71.1878 100° East 151 174 15,000  Level Boston Center
04:21PM 42.4699 -71.2890 276° West  Level Estimated
04:28PM 42.4699 -71.2890 North  Level Estimated
04:29PM 42.4699 -71.2890 North  Level Estimated
04:30PM 42.4699 -71.2890 North  Level Estimated
04:31PM 42.4699 -71.2890 North  Level Estimated
04:32PM 42.4699 -71.2890 North  Level Estimated
04:33PM 42.4699 -71.2890 North  Level Estimated
04:34PM 42.4699 -71.2890 North  Level Estimated